Regional Weather Roundup
Issued by NWS

Home | Current Version | Previous Version | Graphics & Text | Print | Product List | Glossary On
Versions: 1 2 3 4 5 6 7 8 9 10 11 12 13 14 15 16 17 18 19 20 21 22 23 24 25 26 27 28 29 30 31 32 33 34 35 36 37 38 39 40 41 42 43 44 45 46 47 48 49 50
715
ASUS44 KJAN 222010
RWRMS

MISSISSIPPI HOURLY WEATHER ROUNDUP
NATIONAL WEATHER SERVICE JACKSON MS
300 PM CDT WED OCT 22 2014

NOTE: "FAIR: INDICATES FEW OR NO CLOUDS BELOW 12,000 FEET WITH NO
SIGNIFICANT WEATHER AND/OR OBSTRUCTIONS TO VISIBILITY.

MSZ001>002-007>008-010>013-018>021-025>028-034>036-222100-
NORTHWEST MISSISSIPPI

CITY           SKY/WX    TMP DP  RH WIND       PRES   REMARKS
CLARKSDALE     FAIR      68  43  40 N13       30.18F
CLEVELAND      FAIR      71  46  39 N13       30.15F
GREENWOOD      SUNNY     71  45  39 N8        30.14F
GREENVILLE     SUNNY     73  42  32 NE12      30.13F
GRENADA          N/A    N/A N/A N/A MISG        N/A
OLIVE BRANCH   SUNNY     64  43  45 NE6       30.19F
OXFORD         FAIR      66  41  39 NE9G17    30.18F
TUNICA         CLEAR     68  43  40 N12       30.19F
$$

MSZ003>006-009-014>017-022>024-029>033-037>039-222100-
NORTHEAST MISSISSIPPI

CITY           SKY/WX    TMP DP  RH WIND       PRES   REMARKS
COLUMBUS AFB   SUNNY     69  41  35 N10       30.13F
CORINTH        FAIR      66  41  39 NE8G15    30.17F
GOLDN TRIANGLE SUNNY     70  45  40 N12       30.13F
STARKVILLE     FAIR      68  43  40 NE8       30.13F
TUPELO         SUNNY     67  42  40 E13       30.15F
$$

MSZ040-058-222100-
CENTRAL MISSISSIPPI

CITY           SKY/WX    TMP DP  RH WIND       PRES   REMARKS
JACKSON INTL   MOSUNNY   74  48  39 N10       30.10F
JACKSON HAWKNS SUNNY     74  46  36 NE8       30.10F
MERIDIAN KEY   SUNNY     73  42  32 NE12      30.09F
MERIDIAN NAS   SUNNY     72  42  34 N8        30.10F
RAYMOND        FAIR      75  70  83 N3        30.10S
VICKSBURG      SUNNY     76  50  40 N12       30.11F
$$

MSZ059>079-222100-
SOUTH MISSISSIPPI

CITY           SKY/WX    TMP DP  RH WIND       PRES   REMARKS
BROOKHAVEN     FAIR      75  50  41 NE7       30.09F
COLUMBIA         N/A    N/A N/A N/A MISG        N/A
HATTIESBURG    SUNNY     77  48  35 NE7       30.07S
MCCOMB         SUNNY     78  46  32 N9        30.07F
NATCHEZ        SUNNY     75  48  38 N9        30.09F
PINE BELT      SUNNY     77  48  36 N7        30.09S
$$

MSZ080>082-222100-
COASTAL MISSISSIPPI

CITY           SKY/WX    TMP DP  RH WIND       PRES   REMARKS
BILOXI         SUNNY     79  51  37 N7        30.02F
PASCAGOULA     SUNNY     79  48  33 N9        30.02F
GULFPORT       SUNNY     80  52  37 VRB7      30.02F
$$



USA.gov is the U.S. government's official web portal to all federal, state and local government web resources and services.